Weather History for Lanai City, HI

Change the Weather History Date:

Monday, August 5, 2013

  Actual Average Record
Temperature  
Mean Temperature 75 °F -  
Max Temperature 82 °F 83 °F 86 °F (1991)
Min Temperature 68 °F 67 °F 59 °F (1955)
Cooling Degree Days 10    
Growing Degree Days 25 (Base 50)    
Moisture  
Dew Point 68 °F    
Average Humidity 80    
Maximum Humidity 90    
Minimum Humidity 60    
Precipitation  
Precipitation 0.00 in - - ()
Sea Level Pressure  
Sea Level Pressure 30.02 in    
Wind  
Wind Speed 9 mph (NE)    
Max Wind Speed 18 mph    
Max Gust Speed 24 mph    
Visibility 10 miles    
Events Rain    
Averages and records for this station are not official NWS values.
T = Trace of Precipitation, MM = Missing Value Source: NWS Daily Summary

Daily Weather History Graph

Daily Weather History Graph

Search for Another Location

Airport:

Trip Planner

Search our weather history database for the weather conditions in past years. The results will help you decide how hot, cold, wet, or windy it might be!

Date:

Astronomy

Aug. 05, 2013 Rise Set
Actual Time 6:03 AM HST 7:03 PM HST
Civil Twilight 5:40 AM HST 7:26 PM HST
Nautical Twilight 5:12 AM HST 7:54 PM HST
Astronomical Twilight 4:44 AM HST 8:22 PM HST
Moon 5:06 AM HST (8/5) 6:16 PM HST (8/5)
Length of Visible Light 13h 46m
Length of Day
12h 59m
Waning Crescent, 1% of the Moon is Illuminated
Aug 5
Waning Crescent
Aug 6
New
Aug 14
First Quarter
Aug 20
Full
Aug 27
Last Quarter

Hourly Weather History & Observations

Time (HST) Temp. Heat Index Dew Point Humidity Pressure Visibility Wind Dir Wind Speed Gust Speed Precip Events Conditions
12:56 AM 68.0 °F - 63.9 °F 87% 30.01 in 10.0 mi NE 5.8 mph - N/A   Clear
1:56 AM 70.9 °F - 66.9 °F 87% 29.98 in 10.0 mi ENE 8.1 mph - N/A   Scattered Clouds
2:56 AM 70.9 °F - 65.8 °F 84% 29.97 in 10.0 mi NE 9.2 mph - N/A   Partly Cloudy
3:56 AM 70.9 °F - 66.9 °F 87% 29.96 in 10.0 mi ENE 10.4 mph - N/A   Partly Cloudy
4:56 AM 70.9 °F - 66.9 °F 87% 29.97 in 10.0 mi East 5.8 mph - N/A   Scattered Clouds
5:56 AM 70.0 °F - 66.9 °F 90% 29.99 in 10.0 mi ENE 6.9 mph - N/A   Clear
6:56 AM 72.9 °F - 66.9 °F 82% 30.01 in 10.0 mi NNE 12.7 mph - N/A   Clear
7:56 AM 77.0 °F - 68.0 °F 74% 30.01 in 10.0 mi NE 16.1 mph 20.7 mph N/A   Partly Cloudy
8:31 AM 75.2 °F - 68.0 °F 78% 30.09 in 10.0 mi ENE 12.7 mph - N/A   Mostly Cloudy
8:56 AM 79.0 °F - 68.0 °F 69% 30.01 in 10.0 mi NE 13.8 mph - N/A   Scattered Clouds
9:56 AM 82.9 °F 85.8 °F 68.0 °F 60% 30.01 in 10.0 mi NNE 15.0 mph - N/A   Partly Cloudy
10:56 AM 80.6 °F 83.2 °F 68.0 °F 65% 30.07 in 10.0 mi ESE 10.4 mph - N/A   Mostly Cloudy
11:56 AM 79.9 °F - 68.0 °F 67% 29.99 in 10.0 mi Variable 4.6 mph - N/A   Mostly Cloudy
12:04 PM 80.6 °F 83.2 °F 68.0 °F 65% 30.06 in 10.0 mi WNW 8.1 mph - N/A   Mostly Cloudy
12:37 PM 75.2 °F - 69.8 °F 83% 30.06 in 5.0 mi NE 11.5 mph - 0.00 in Rain Light Rain
12:48 PM 80.6 °F 84.6 °F 71.6 °F 74% 30.05 in 10.0 mi NE 9.2 mph - 0.00 in Rain Light Rain
12:56 PM 82.9 °F 86.3 °F 68.9 °F 62% 29.98 in 10.0 mi ENE 10.4 mph - 0.00 in Rain Light Rain
1:19 PM 80.6 °F 83.9 °F 69.8 °F 70% 30.04 in 10.0 mi SW 5.8 mph - 0.00 in   Mostly Cloudy
1:56 PM 80.6 °F 83.9 °F 69.8 °F 70% 30.04 in 10.0 mi North 4.6 mph - N/A Rain Light Rain
2:12 PM 75.2 °F - 69.8 °F 83% 30.03 in 9.0 mi North 6.9 mph - 0.00 in Rain Light Rain
2:56 PM 75.9 °F - 70.9 °F 84% 29.96 in 10.0 mi WSW 4.6 mph - 0.00 in Rain Light Rain
3:56 PM 74.8 °F - 70.9 °F 87% 29.96 in 5.0 mi Variable 5.8 mph - 0.00 in Rain Light Rain
4:56 PM 75.2 °F - 71.6 °F 89% 30.02 in 10.0 mi SSW 5.8 mph - N/A Rain Light Rain
5:56 PM 77.0 °F - 68.9 °F 76% 29.96 in 10.0 mi NE 15.0 mph 20.7 mph 0.00 in   Overcast
6:03 PM 77.0 °F - 68.0 °F 74% 30.02 in 10.0 mi NE 16.1 mph 20.7 mph N/A   Mostly Cloudy
6:14 PM 75.2 °F - 68.0 °F 78% 30.02 in 10.0 mi NE 15.0 mph 24.2 mph N/A   Scattered Clouds
6:56 PM 73.9 °F - 66.9 °F 79% 29.97 in 10.0 mi NE 18.4 mph 24.2 mph N/A   Clear
7:56 PM 72.9 °F - 66.9 °F 82% 29.99 in 10.0 mi ENE 10.4 mph 24.2 mph N/A   Clear
8:56 PM 72.9 °F - 66.9 °F 82% 30.00 in 10.0 mi ENE 10.4 mph - N/A   Partly Cloudy
9:11 PM 73.4 °F - 68.0 °F 83% 30.08 in 10.0 mi East 4.6 mph - N/A   Mostly Cloudy
9:21 PM 73.4 °F - 69.8 °F 88% 30.08 in 10.0 mi Variable 5.8 mph - N/A   Overcast
9:49 PM 73.4 °F - 69.8 °F 88% 30.08 in 10.0 mi NNE 5.8 mph - 0.00 in   Overcast
9:56 PM 72.9 °F - 68.9 °F 87% 30.01 in 10.0 mi NNE 5.8 mph - 0.00 in   Overcast
10:03 PM 73.4 °F - 69.8 °F 88% 30.09 in 10.0 mi NNE 5.8 mph - N/A   Overcast
10:13 PM 73.4 °F - 68.0 °F 83% 30.09 in 10.0 mi NE 4.6 mph - N/A   Mostly Cloudy
10:21 PM 73.4 °F - 68.0 °F 83% 30.08 in 10.0 mi ENE 4.6 mph - N/A   Scattered Clouds
10:56 PM 72.0 °F - 66.9 °F 84% 30.01 in 10.0 mi NE 5.8 mph - N/A   Clear
11:56 PM 70.0 °F - 65.8 °F 87% 30.01 in 10.0 mi ENE 3.5 mph - N/A   Scattered Clouds